Retour au catalogue

QIANFAN-6

ActifCommunicationsPO
NORAD 60384·PAYLOAD·🇨🇳 China

Lancé Aug 6, 2024 depuis Taiyuan Satellite Launch Center

Loading…

Prochains Passages (prochaines 24 heures)

TLE

FraisSource: Space-Track

Époque: Sep 14, 2026, 14:02 UTC

1 60384U 24140F   26257.58539217  .00000016  00000-0  61261-5 0  9992
2 60384  88.9670 270.4019 0015076 115.4157 244.8556 13.51024061104740

Suivez QIANFAN-6 en temps réel avec AllMySat

Download on the App Store